sat.trackr.live / text

‹ back to catalog

STARLINK-5060

NORAD 55413 · 2023-014Y

PAYLOAD ACTIVE UNKNOWN

§ Identity

Operator
Country
US
Launch date
2023-01-31
Launch site
AFWTR
Launch vehicle
Mass (kg)
RCS (m²)

Purposes: comms

External: N2YO · Heavens-Above · Gunter

§ Orbital elements

Epoch: 2026-09-20T22:00:03.000096Z

Period
95.93 min
Inclination
70.0007°
Eccentricity
0.0003862
Mean motion
15.01071100 rev/d
Perigee alt
560.9 km
Apogee alt
566.3 km
Semi-major
6,941.7 km
B*
7.3315e-3
RAAN
312.0186°
Arg perigee
219.8651°
Mean anomaly
19.5048°
Rev number
576

§ Raw data

STARLINK-50601 55413U 23014Y   26263.91670139  .00095139  00000+0  73315-2 0  99902 55413  70.0007 312.0186 0003862 219.8651  19.5048 15.01071100  5767

JSON: /api/v1/satellites/55413 · /tle

For live sub-satellite position, see the globe view (requires WebGL).

§ Visibility from observer

Set your observer location to see the next 7 days of passes ≥ 10°. The values pass through the URL so the page stays shareable.

No JS? Fill the form by hand. The geolocation button needs JavaScript.